Capitol Logistics 462


KEWR
Newark Liberty International Airport
Newark, New Jersey, US
KRFD
Chicago/Rockford International Airport
Rockford, Illinois, US

Route Details

Aircraft Information
Primary: Boeing 737-800BCF
Backup: Not Available
Route Data
Distance: 913nm
Sched. Duration: 1h 54m
Avg. Duration: 3h 76m (+222m)
Times Flown: 5
Recm'd Route: COATE Q436 RAAKK Q438 BERYS FNT J94 OBK V100 RFD
Planned Altitude: 38,000ft
Origin Wx: KEWR 262151Z 06006KT 1 3/4SM -DZ BR BKN006 OVC010 02/01 A2989 RMK AO2 TWR VIS 2 SLP119 P0000 T00170006
Dest. Wx: KRFD 262154Z 01016G25KT 10SM BKN019 BKN250 M02/M08 A3008 RMK AO2 SLP194 T10221078
Notes:

Financial History
Total Freight: 64,944lbs
Average Load: 12,989lbs/flt
Fuel Used: 87,418lbs
Avg. Fuel Used: 17,484lbs/flt
Fuel Expense: $107,524
Avg. Fuel Expense: $21,505
Avg. Fuel Cost: $1.23/lbs
Total Gross Income: $88,720
Pilot Pay: $775
Total Expenses: $9,842
Total Revenue: $-31,286
Average Revenue: $17,743.97